Torna al catalogo

COSMOS 1275 DEB

AttivoPO
NORAD 42099·DEBRIS·🇷🇺 Russia

Lanciato Jun 4, 1981 da Plesetsk Cosmodrome

Loading…

Prossimi Passaggi (prossime 24 ore)

TLE

In scadenzaSource: Space-Track

Epoca: Sep 7, 2026, 12:35 UTC

1 42099U 81053PK  26250.52440468  .00002356  00000-0  82646-3 0  9994
2 42099  82.8547 322.8043 0030042 127.9932 232.3977 14.34452427548280

Traccia COSMOS 1275 DEB in tempo reale con AllMySat

Download on the App Store